St. John's, Canada

5:23 PM NDT on April 27, 2017 (GMT -0230)
St. John's International

Weather History for CYYT - November, 2012

Change the Weather History Date:

Thursday, November 8, 2012

  Actual Average Record
Temperature  
Mean Temperature 39 °F -  
Max Temperature 42 °F 41 °F 77 °F (2005)
Min Temperature 36 °F 30 °F 24 °F (1996)
Degree Days  
Heating Degree Days 26    
Moisture  
Dew Point 40 °F    
Average Humidity 99    
Maximum Humidity 100    
Minimum Humidity 92    
Precipitation  
Precipitation 0.55 in 0.19 in - ()
Sea Level Pressure  
Sea Level Pressure 30.15 in    
Wind  
Wind Speed 16 mph ()    
Max Wind Speed 25 mph    
Max Gust Speed 36 mph    
Visibility 2.9 miles    
Events Fog , Rain    
Averages and records for this station are not official NWS values.
T = Trace of Precipitation, MM = Missing Value Source: Averaged Metar Reports

Daily Weather History Graph

Daily Weather History Graph

Search for Another Location

Airport or City:

Trip Planner

Search our weather history database for the weather conditions in past years. The results will help you decide how hot, cold, wet, or windy it might be!

Date:

Astronomy

Nov. 08, 2012 Rise Set
Actual Time 6:56 AM NST 4:32 PM NST
Civil Twilight 6:23 AM NST 5:05 PM NST
Nautical Twilight 5:46 AM NST 5:42 PM NST
Astronomical Twilight 5:10 AM NST 6:18 PM NST
Moon 12:20 AM NST (11/8) 1:32 PM NST (11/8)
Length of Visible Light 10h 42m
Length of Day
9h 36m
Waning Crescent, 33% of the Moon is Illuminated
Nov 8
Waning Crescent
Nov 13
New
Nov 20
First Quarter
Nov 28
Full
Dec 6
Last Quarter

Hourly Weather History & Observations

Time (NST) Temp. Windchill Dew Point Humidity Pressure Visibility Wind Dir Wind Speed Gust Speed Precip Events Conditions
12:30 AM 37.4 °F 30.3 °F 35.6 °F 93% 30.32 in 8.0 mi East 10.4 mph - N/A Rain Light Rain
1:30 AM 37.4 °F 28.5 °F 35.6 °F 93% 30.30 in 8.0 mi East 15.0 mph 23.0 mph N/A Rain Light Rain
1:52 AM 37.4 °F 27.5 °F 37.4 °F 100% 30.27 in 6.0 mi East 18.4 mph - N/A Rain Light Rain
2:30 AM 38 °F - 36 °F 92% 30.26 in 5 mi East 19.6 mph - - Rain Light Rain
2:30 AM 37.4 °F 27.2 °F 37.4 °F 100% 30.26 in 5.0 mi East 19.6 mph 26.5 mph N/A Rain Light Rain
3:30 AM 37.4 °F 27.2 °F 37.4 °F 100% 30.20 in 4.0 mi East 19.6 mph 33.4 mph N/A Rain Rain
4:30 AM 39.2 °F 30.2 °F 37.4 °F 93% 30.25 in 3.0 mi East 17.3 mph - N/A Rain Rain
5:19 AM 39.2 °F 29.3 °F 39.2 °F 100% 30.25 in 3.0 mi East 20.7 mph 29.9 mph N/A Rain Light Rain
5:30 AM 39.2 °F 30.2 °F 39.2 °F 100% 30.25 in 3.0 mi East 17.3 mph 31.1 mph N/A Rain Light Rain
6:30 AM 39.2 °F 28.7 °F 39.2 °F 100% 30.22 in 3.0 mi East 23.0 mph 29.9 mph N/A Rain Light Rain
7:30 AM 39.2 °F 28.3 °F 39.2 °F 100% 30.21 in 4.0 mi East 25.3 mph 34.5 mph N/A Rain Light Rain
8:30 AM 39 °F - 38 °F 97% 30.20 in 4 mi East 25.3 mph - - Rain Light Rain
8:30 AM 39.2 °F 29.3 °F 39.2 °F 100% 30.20 in 4.0 mi East 20.7 mph 35.7 mph N/A Rain Light Rain
9:30 AM 39.2 °F 28.7 °F 39.2 °F 100% 30.19 in 4.0 mi East 23.0 mph 31.1 mph N/A Rain Light Rain
10:30 AM 39.2 °F 28.5 °F 39.2 °F 100% 30.18 in 3.0 mi East 24.2 mph 32.2 mph N/A Rain Light Rain
11:30 AM 39.2 °F 29.0 °F 39.2 °F 100% 30.15 in 3.0 mi East 21.9 mph 32.2 mph N/A Rain Light Rain
12:30 PM 39.2 °F 28.7 °F 39.2 °F 100% 30.12 in 3.0 mi East 23.0 mph 29.9 mph N/A Rain Light Rain
1:17 PM 41.0 °F 32.2 °F 41.0 °F 100% 30.12 in 1.5 mi ENE 18.4 mph 29.9 mph N/A Rain Light Rain
1:30 PM 41.0 °F 31.1 °F 41.0 °F 100% 30.12 in 1.5 mi East 23.0 mph 31.1 mph N/A Rain Light Rain
2:10 PM 41.0 °F 31.9 °F 41.0 °F 100% 30.11 in 2.0 mi ENE 19.6 mph 28.8 mph N/A Rain Light Rain
2:30 PM 40 °F - 40 °F 100% 30.11 in 2 mi ENE 18.4 mph - - Rain Light Rain
2:30 PM 41.0 °F 32.8 °F 41.0 °F 100% 30.11 in 2.0 mi ENE 16.1 mph 28.8 mph N/A Rain Light Rain
3:30 PM 41.0 °F 32.2 °F 41.0 °F 100% 30.11 in 2.0 mi ENE 18.4 mph 25.3 mph N/A Rain Light Rain
4:30 PM 41.0 °F 31.9 °F 41.0 °F 100% 30.12 in 2.0 mi ENE 19.6 mph 26.5 mph N/A Rain Light Rain
5:30 PM 41.0 °F 32.2 °F 41.0 °F 100% 30.10 in 3.0 mi East 18.4 mph 26.5 mph N/A Rain Light Rain
6:30 PM 41.0 °F 32.5 °F 41.0 °F 100% 30.10 in 3.0 mi East 17.3 mph 25.3 mph N/A Rain Light Rain
6:50 PM 41.0 °F 32.5 °F 41.0 °F 100% 30.10 in 2.0 mi ENE 17.3 mph 23.0 mph N/A Rain Light Rain
7:30 PM 41.0 °F 32.2 °F 41.0 °F 100% 30.08 in 2.0 mi ENE 18.4 mph - N/A Rain Light Rain
8:07 PM 42.8 °F 35.1 °F 42.8 °F 100% 30.07 in 1.2 mi East 16.1 mph 23.0 mph N/A Rain Light Rain
8:30 PM 42 °F - 42 °F 100% 30.08 in 1 mi East 13.8 mph - - Rain Light Rain
8:30 PM 42.8 °F 36.2 °F 42.8 °F 100% 30.07 in 1.2 mi ENE 12.7 mph 20.7 mph N/A Rain Light Rain
9:04 PM 42.8 °F 35.4 °F 42.8 °F 100% 30.06 in 0.5 mi East 15.0 mph 23.0 mph N/A Fog Light Drizzle
9:30 PM 42.8 °F 36.2 °F 42.8 °F 100% 30.04 in 0.5 mi ENE 12.7 mph 19.6 mph N/A Fog Light Drizzle
10:30 PM 42.8 °F 35.1 °F 42.8 °F 100% 30.04 in 0.5 mi East 16.1 mph - N/A Fog Light Drizzle
11:30 PM 42.8 °F 35.8 °F 42.8 °F 100% 30.00 in 0.5 mi East 13.8 mph 19.6 mph N/A Fog Light Drizzle